This is the latest recevied weather packets stored in our database for station/object KC8SWY-15. If no packets are shown the sender has not sent any weather packets the latest 10 day(s).
| Time | Temp. | Humidity | Pressure | Rain* | Wind** | Luminosity | Snow |
|---|---|---|---|---|---|---|---|
| 1788442233 | 25° C | 93% | 1012.7 hPa | 0 mm | - | - | - |
| 1788441933 | 25° C | 93% | 1012.8 hPa | 0 mm | - | - | - |
| 1788441633 | 25° C | 93% | 1012.7 hPa | 0 mm | - | - | - |
| 1788441333 | 24.44° C | 94% | 1012.7 hPa | 0 mm | - | - | - |
| 1788441056 | 24.44° C | 94% | 1012.8 hPa | 0.76 mm | - | - | - |
| 1788440733 | 24.44° C | 94% | 1012.6 hPa | 1.52 mm | - | - | - |
| 1788440471 | 24.44° C | 94% | 1012.7 hPa | 1.52 mm | - | - | - |
| 1788440433 | 24.44° C | 94% | 1012.7 hPa | 1.52 mm | - | - | - |
| 1788440133 | 24.44° C | 94% | 1012.6 hPa | 1.78 mm | - | - | - |
| 1788439833 | 24.44° C | 94% | 1012.5 hPa | 1.78 mm | - | - | - |
| 1788439533 | 24.44° C | 95% | 1012.5 hPa | 1.78 mm | - | - | - |
| 1788439233 | 23.89° C | 94% | 1012.6 hPa | 1.78 mm | - | - | - |
| 1788438933 | 23.89° C | 94% | 1012.7 hPa | 1.78 mm | - | - | - |
| 1788438633 | 23.89° C | 94% | 1012.8 hPa | 1.78 mm | - | - | - |
| 1788438333 | 23.89° C | 94% | 1013 hPa | 1.78 mm | - | - | - |
| 1788438033 | 23.89° C | 93% | 1013.1 hPa | 1.78 mm | - | - | - |
| 1788437733 | 23.89° C | 93% | 1013.4 hPa | 1.78 mm | - | - | - |
| 1788437433 | 23.89° C | 93% | 1013.5 hPa | 1.02 mm | - | - | - |
| 1788437133 | 23.89° C | 93% | 1013.7 hPa | 0.25 mm | - | - | - |
| 1788436833 | 23.89° C | 94% | 1013.7 hPa | 0.25 mm | - | - | - |
| 1788436533 | 23.89° C | 94% | 1013.5 hPa | 0 mm | - | - | - |
| 1788436233 | 23.89° C | 94% | 1013.3 hPa | 0 mm | - | - | - |
| 1788435933 | 23.89° C | 95% | 1013.2 hPa | 0 mm | - | - | - |
| 1788435633 | 23.33° C | 95% | 1013.2 hPa | 0 mm | - | - | - |
| 1788435333 | 23.33° C | 95% | 1013 hPa | 0 mm | - | - | - |
* Rain latest hour (hover to see other rain measurements)
** Current wind speed in m/s (hover to see current wind gust speed)